Tracking 28790 objects as of 19-Apr-2024
HD Live streaming from Space Station
objects crossing your sky now

ATLAS 5 CENTAUR DEB

Track ATLAS 5 CENTAUR DEB now!


NORAD ID: 44647
Int'l Code: 2018-079H
Perigee: 8,467.6 km
Apogee: 34,241.6 km
Inclination: 12.4 °
Period: 765.7 minutes
Semi major axis: 27725 km
RCS: Unknown
Launch date: October 17, 2018
Source: United States (US)
Launch site: AIR FORCE EASTERN TEST RANGE (AFETR)

Note: This is SATELLITE DEBRIS
Your satellite tracking list
Your tracking list is empty




NASA's NSSDC Master Catalog

Two Line Element Set (TLE):
1 44647U 18079H   24108.31538961 -.00000054  00000-0  00000+0 0  9990
2 44647  12.4368  92.5220 4648042 203.6623 125.3758  1.88053447 37709
Source of the keplerian elements: AFSPC